User: anonymous   Login
Location: Blue Moon Astronomical Observatory
(34.7385°N, 94.5476°W)
Time: 18:52:31
(UTC-06:00)
Language:

Iridium 77 - Orbit

View from above orbital plane
View from above orbital plane
View from above satellite
View from above satellite

Ground track
Ground track

The orbit data is extracted from the following two-line orbital elements,

1 25471U 98051E   14326.33431155  .00000621  00000-0  21455-3 0  1703
2 25471 086.3977 053.7035 0002149 116.7541 284.8175 14.34226230853610
Epoch (UTC): 22 November 2014 08:01:24
Eccentricity: 0.0002149
inclination: 86.3977°
perigee height: 776 km
apogee height: 779 km
right ascension of ascending node: 53.7035°
argument of perigee: 116.7541°
revolutions per day: 14.34226230
mean anomaly at epoch: 284.8175°
orbit number at epoch: 85361

The dashed part of the orbit path shows where the satellite is in the earth's shadow,  

DLR